,,Stat5,,Stat1,,Stat2,,Stat3,,Stat4,,Wind1,,Wind1,
time,status,PA1M_AVG,status,PR1M_SUM,status,RH1M_AVG,status,SR1M_AVG,status,TA1M_AVG,status,W1dAve1m,status,W1sAve1m,
2002-04-25, 00:00:01,VALID,917.736,VALID,0.2,VALID,99.3823,VALID,-0.101885,VALID,19.4274,VALID,77,VALID,1.52365,
2002-04-25, 00:01:00,VALID,917.736,VALID,0.2,VALID,99.3746,VALID,-0.101885,VALID,19.4177,VALID,84,VALID,1.73208,
2002-04-25, 00:02:00,VALID,917.727,VALID,0,VALID,99.3772,VALID,-0.101885,VALID,19.3856,VALID,114,VALID,1.16509,
2002-04-25, 00:03:00,VALID,917.679,VALID,0.2,VALID,99.3721,VALID,-0.118866,VALID,19.3523,VALID,116,VALID,0.523438,
2002-04-25, 00:04:00,VALID,917.633,VALID,0.2,VALID,99.3784,VALID,-0.101885,VALID,19.3528,VALID,121,VALID,0.780016,
2002-04-25, 00:05:00,VALID,917.619,VALID,0,VALID,99.381,VALID,-0.101885,VALID,19.3501,VALID,118,VALID,0.905859,
2002-04-25, 00:06:00,VALID,917.595,VALID,0.2,VALID,99.3988,VALID,-0.0849042,VALID,19.3501,VALID,95,VALID,0.576606,
2002-04-25, 00:07:00,VALID,917.581,VALID,0.4,VALID,99.3924,VALID,-0.101885,VALID,19.3434,VALID,99,VALID,0.968941,
2002-04-25, 00:08:00,VALID,917.553,VALID,0.2,VALID,99.4013,VALID,-0.0849042,VALID,19.3399,VALID,98,VALID,0.959736,
2002-04-25, 00:09:00,VALID,917.514,VALID,0.4,VALID,99.3937,VALID,-0.0169808,VALID,19.3397,VALID,91,VALID,1.04267,
2002-04-25, 00:10:00,VALID,917.503,VALID,0.4,VALID,99.4051,VALID,-0.0339617,VALID,19.3496,VALID,86,VALID,1.22559,
2002-04-25, 00:11:00,VALID,917.472,VALID,0.4,VALID,99.4064,VALID,-0.0509425,VALID,19.3459,VALID,89,VALID,0.905649,
2002-04-25, 00:12:00,VALID,917.447,VALID,0.2,VALID,99.4179,VALID,-0.0169808,VALID,19.3493,VALID,79,VALID,1.08594,
2002-04-25, 00:13:00,VALID,917.397,VALID,0.2,VALID,99.4115,VALID,-0.0339617,VALID,19.3364,VALID,63,VALID,0.263477,
2002-04-25, 00:14:00,VALID,917.359,VALID,0.2,VALID,99.4166,VALID,-0.0339617,VALID,19.3359,VALID,88,VALID,0.477196,
2002-04-25, 00:15:00,VALID,917.337,VALID,0.2,VALID,99.4293,VALID,-0.0509425,VALID,19.3459,VALID,55,VALID,0.712109,
2002-04-25, 00:16:00,VALID,917.302,VALID,0.2,VALID,99.4204,VALID,-0.0339617,VALID,19.3528,VALID,60,VALID,1.04828,
2002-04-25, 00:17:00,VALID,917.299,VALID,0.2,VALID,99.4357,VALID,-0.0339617,VALID,19.356,VALID,39,VALID,1.30449,
2002-04-25, 00:18:00,VALID,917.281,VALID,0.2,VALID,99.4318,VALID,-0.0509425,VALID,19.3595,VALID,33,VALID,1.31641,
2002-04-25, 00:19:00,VALID,917.258,VALID,0,VALID,99.4318,VALID,-0.0849042,VALID,19.3431,VALID,25,VALID,1.1869,
2002-04-25, 00:20:00,VALID,917.216,VALID,0.2,VALID,99.442,VALID,-0.0339617,VALID,19.359,VALID,14,VALID,1.1871,
2002-04-25, 00:21:00,VALID,917.175,VALID,0.2,VALID,99.4522,VALID,-0.0509425,VALID,19.3883,VALID,21,VALID,0.964258,
2002-04-25, 00:22:00,VALID,917.141,VALID,0,VALID,99.4471,VALID,-0.0339617,VALID,19.4107,VALID,19,VALID,1.33425,
2002-04-25, 00:23:00,VALID,917.098,VALID,0.2,VALID,99.456,VALID,-0.0509425,VALID,19.4303,VALID,16,VALID,1.07266,
2002-04-25, 00:24:00,VALID,917.058,VALID,0,VALID,99.4636,VALID,-0.0679233,VALID,19.4602,VALID,21,VALID,1.0629,
2002-04-25, 00:25:00,VALID,917.025,VALID,0.2,VALID,99.4522,VALID,-0.0849042,VALID,19.4492,VALID,21,VALID,0.718349,
2002-04-25, 00:26:00,VALID,916.978,VALID,0,VALID,99.4446,VALID,-0.0339617,VALID,19.443,VALID,6,VALID,0.798242,
2002-04-25, 00:27:00,VALID,916.951,VALID,0,VALID,99.4496,VALID,-0.0509425,VALID,19.4532,VALID,6,VALID,0.643229,
2002-04-25, 00:28:00,VALID,916.932,VALID,0,VALID,99.4547,VALID,-0.0509425,VALID,19.4366,VALID,7,VALID,0.850361,
2002-04-25, 00:29:00,VALID,916.907,VALID,0,VALID,99.4535,VALID,-0.0509425,VALID,19.4366,VALID,11,VALID,0.810352,
2002-04-25, 00:30:00,VALID,916.879,VALID,0.2,VALID,99.456,VALID,-0.0339617,VALID,19.4331,VALID,13,VALID,0.318834,
2002-04-25, 00:31:00,VALID,916.849,VALID,0,VALID,99.456,VALID,-0.0679233,VALID,19.4266,VALID,17,VALID,0.305078,
2002-04-25, 00:32:00,VALID,916.808,VALID,0,VALID,99.4611,VALID,-0.0339617,VALID,19.4229,VALID,22,VALID,0.240585,
2002-04-25, 00:33:00,VALID,916.784,VALID,0,VALID,99.456,VALID,-0.0849042,VALID,19.4433,VALID,22,VALID,0.438702,
2002-04-25, 00:34:00,VALID,916.761,VALID,0.2,VALID,99.4598,VALID,-0.0509425,VALID,19.4433,VALID,15,VALID,0.480664,
2002-04-25, 00:35:00,VALID,916.746,VALID,0,VALID,99.4598,VALID,-0.101885,VALID,19.4435,VALID,12,VALID,0.396234,
2002-04-25, 00:36:00,VALID,916.708,VALID,0,VALID,99.4662,VALID,-0.0849042,VALID,19.4336,VALID,11,VALID,0.603566,
2002-04-25, 00:37:00,VALID,916.678,VALID,0,VALID,99.4598,VALID,-0.0679233,VALID,19.4005,VALID,8,VALID,0.711523,
2002-04-25, 00:38:00,VALID,916.671,VALID,0,VALID,99.4585,VALID,-0.0679233,VALID,19.3913,VALID,16,VALID,0.759924,
2002-04-25, 00:39:01,VALID,916.664,VALID,0,VALID,99.4624,VALID,-0.0339617,VALID,19.3816,VALID,16,VALID,0.676883,
2002-04-25, 00:40:01,VALID,916.647,VALID,0.2,VALID,99.4573,VALID,-0.0679233,VALID,19.3913,VALID,22,VALID,0.643229,
2002-04-25, 00:41:00,VALID,916.631,VALID,0,VALID,99.4649,VALID,-0.0339617,VALID,19.398,VALID,29,VALID,0.738582,
2002-04-25, 00:42:00,VALID,916.616,VALID,0,VALID,99.4738,VALID,-0.0679233,VALID,19.4077,VALID,24,VALID,0.629102,
2002-04-25, 00:43:00,VALID,916.59,VALID,0,VALID,99.4649,VALID,-0.0679233,VALID,19.3978,VALID,14,VALID,0.79367,
2002-04-25, 00:44:00,VALID,916.566,VALID,0,VALID,99.4751,VALID,-0.0679233,VALID,19.4077,VALID,13,VALID,0.735777,
2002-04-25, 00:45:00,VALID,916.563,VALID,0,VALID,99.4598,VALID,-0.0339617,VALID,19.4137,VALID,6,VALID,0.825586,
2002-04-25, 00:46:00,VALID,916.544,VALID,0,VALID,99.4662,VALID,-0.0509425,VALID,19.4405,VALID,354,VALID,0.912162,
2002-04-25, 00:47:00,VALID,916.519,VALID,0,VALID,99.4725,VALID,-0.0509425,VALID,19.4368,VALID,2,VALID,0.989258,
2002-04-25, 00:48:00,VALID,916.502,VALID,0,VALID,99.4751,VALID,-0.101885,VALID,19.4333,VALID,1,VALID,1.05308,
2002-04-25, 00:49:00,VALID,916.48,VALID,0,VALID,99.4776,VALID,-0.0339617,VALID,19.443,VALID,357,VALID,0.443109,
2002-04-25, 00:50:00,VALID,916.462,VALID,0,VALID,99.4789,VALID,-0.0849042,VALID,19.4564,VALID,341,VALID,0.398242,
2002-04-25, 00:51:00,VALID,916.446,VALID,0.2,VALID,99.4827,VALID,-0.0339617,VALID,19.4594,VALID,354,VALID,0.330729,
2002-04-25, 00:52:00,VALID,916.443,VALID,0,VALID,99.4764,VALID,-0.0679233,VALID,19.4723,VALID,2,VALID,0.324119,
2002-04-25, 00:53:00,VALID,916.426,VALID,0,VALID,99.4789,VALID,-0.0509425,VALID,19.4634,VALID,322,VALID,0.423242,
2002-04-25, 00:54:00,VALID,916.407,VALID,0,VALID,99.4764,VALID,-0.0849042,VALID,19.4495,VALID,317,VALID,0.745988,
2002-04-25, 00:55:00,VALID,916.386,VALID,0,VALID,99.4865,VALID,-0.0849042,VALID,19.4497,VALID,1,VALID,0.551367,
2002-04-25, 00:56:00,VALID,916.38,VALID,0,VALID,99.4891,VALID,-0.0509425,VALID,19.4557,VALID,352,VALID,0.722155,
2002-04-25, 00:57:00,VALID,916.385,VALID,0,VALID,99.4903,VALID,0,VALID,19.4597,VALID,329,VALID,0.531851,
2002-04-25, 00:58:00,VALID,916.36,VALID,0,VALID,99.4802,VALID,-0.0509425,VALID,19.4559,VALID,19,VALID,0.489648,
2002-04-25, 00:59:00,VALID,916.354,VALID,0,VALID,99.4827,VALID,-0.0679233,VALID,19.453,VALID,20,VALID,0.38722,
2002-04-25, 01:00:00,VALID,916.33,VALID,0,VALID,99.4827,VALID,-0.0679233,VALID,19.45,VALID,24,VALID,0.4377,
2002-04-25, 01:01:00,VALID,916.324,VALID,0,VALID,99.4827,VALID,-0.0509425,VALID,19.4761,VALID,27,VALID,0.617969,
2002-04-25, 01:02:00,VALID,916.312,VALID,0,VALID,99.4929,VALID,-0.0679233,VALID,19.4753,VALID,38,VALID,0.35114,
2002-04-25, 01:03:00,VALID,916.291,VALID,0,VALID,99.4942,VALID,-0.0339617,VALID,19.485,VALID,39,VALID,0.238672,
2002-04-25, 01:04:00,VALID,916.289,VALID,0,VALID,99.4954,VALID,-0.0169808,VALID,19.4786,VALID,39,VALID,0.295473,
2002-04-25, 01:05:00,VALID,916.277,VALID,0,VALID,99.498,VALID,-0.101885,VALID,19.4858,VALID,38,VALID,0.339343,
2002-04-25, 01:06:00,VALID,916.261,VALID,0,VALID,99.4865,VALID,-0.0849042,VALID,19.4788,VALID,36,VALID,0.190039,
2002-04-25, 01:07:00,VALID,916.247,VALID,0,VALID,99.4891,VALID,-0.0679233,VALID,19.4858,VALID,36,VALID,0.0905449,
2002-04-25, 01:08:00,VALID,916.22,VALID,0,VALID,99.498,VALID,-0.101885,VALID,19.4887,VALID,21,VALID,0.292468,
2002-04-25, 01:09:00,VALID,916.207,VALID,0,VALID,99.4967,VALID,-0.101885,VALID,19.4922,VALID,15,VALID,0.175781,
2002-04-25, 01:10:00,VALID,916.193,VALID,0,VALID,99.5005,VALID,-0.0679233,VALID,19.4992,VALID,15,VALID,0.0118243,
2002-04-25, 01:11:00,VALID,916.161,VALID,0,VALID,99.4903,VALID,-0.101885,VALID,19.4887,VALID,15,VALID,0.0117188,
2002-04-25, 01:12:00,VALID,916.154,VALID,0,VALID,99.498,VALID,-0.0849042,VALID,19.492,VALID,16,VALID,0.126002,
2002-04-25, 01:13:00,VALID,916.124,VALID,0,VALID,99.4903,VALID,-0.0679233,VALID,19.4788,VALID,38,VALID,0.540264,
2002-04-25, 01:14:00,VALID,916.093,VALID,0,VALID,99.5005,VALID,-0.0679233,VALID,19.4795,VALID,41,VALID,0.454102,
2002-04-25, 01:15:00,VALID,916.083,VALID,0,VALID,99.4954,VALID,-0.101885,VALID,19.4659,VALID,41,VALID,0.291667,
2002-04-25, 01:16:00,VALID,916.062,VALID,0,VALID,99.5005,VALID,-0.0849042,VALID,19.4823,VALID,41,VALID,0.0476763,
2002-04-25, 01:17:00,VALID,916.032,VALID,0,VALID,99.5056,VALID,-0.0849042,VALID,19.4828,VALID,41,VALID,0,
2002-04-25, 01:18:00,VALID,916.016,VALID,0,VALID,99.4967,VALID,-0.0849042,VALID,19.4691,VALID,41,VALID,0,
2002-04-25, 01:19:00,VALID,915.992,VALID,0,VALID,99.5056,VALID,-0.101885,VALID,19.4532,VALID,41,VALID,0,
2002-04-25, 01:20:00,VALID,915.976,VALID,0,VALID,99.5043,VALID,-0.0849042,VALID,19.447,VALID,45,VALID,0.227965,
2002-04-25, 01:21:00,VALID,915.956,VALID,0,VALID,99.4992,VALID,-0.0679233,VALID,19.4438,VALID,107,VALID,0.389022,
2002-04-25, 01:22:00,VALID,915.929,VALID,0,VALID,99.5031,VALID,-0.101885,VALID,19.4346,VALID,122,VALID,0.330273,
2002-04-25, 01:23:00,VALID,915.914,VALID,0,VALID,99.5056,VALID,-0.101885,VALID,19.408,VALID,136,VALID,0.373998,
2002-04-25, 01:24:00,VALID,915.885,VALID,0,VALID,99.5107,VALID,-0.0849042,VALID,19.4149,VALID,153,VALID,0.605769,
2002-04-25, 01:25:00,VALID,915.878,VALID,0,VALID,99.5107,VALID,-0.101885,VALID,19.4311,VALID,152,VALID,0.413867,
2002-04-25, 01:26:00,VALID,915.832,VALID,0,VALID,99.5069,VALID,-0.0679233,VALID,19.4244,VALID,152,VALID,0.278505,
2002-04-25, 01:27:01,VALID,915.803,VALID,0,VALID,99.5031,VALID,-0.0849042,VALID,19.4149,VALID,152,VALID,0.203516,
2002-04-25, 01:28:00,VALID,915.767,VALID,0,VALID,99.5056,VALID,-0.0679233,VALID,19.4174,VALID,152,VALID,0.0112179,
2002-04-25, 01:29:00,VALID,915.75,VALID,0.2,VALID,99.5081,VALID,-0.101885,VALID,19.4119,VALID,152,VALID,0,
2002-04-25, 01:30:00,VALID,915.736,VALID,0,VALID,99.5107,VALID,-0.0679233,VALID,19.3886,VALID,152,VALID,0.0580078,
2002-04-25, 01:31:00,VALID,915.71,VALID,0,VALID,99.5107,VALID,-0.0509425,VALID,19.3953,VALID,152,VALID,0.380809,
2002-04-25, 01:32:00,VALID,915.705,VALID,0,VALID,99.5196,VALID,-0.0679233,VALID,19.3921,VALID,152,VALID,0.503205,
2002-04-25, 01:33:00,VALID,915.696,VALID,0,VALID,99.517,VALID,-0.0509425,VALID,19.3824,VALID,152,VALID,0.601758,
2002-04-25, 01:34:00,VALID,915.673,VALID,0,VALID,99.5234,VALID,-0.0509425,VALID,19.3784,VALID,152,VALID,0.584671,
2002-04-25, 01:35:01,VALID,915.668,VALID,0,VALID,99.5183,VALID,-0.0509425,VALID,19.3883,VALID,151,VALID,0.449414,
2002-04-25, 01:36:00,VALID,915.639,VALID,0,VALID,99.5234,VALID,-0.0509425,VALID,19.3983,VALID,151,VALID,0.38141,
2002-04-25, 01:37:00,VALID,915.623,VALID,0,VALID,99.5247,VALID,-0.0339617,VALID,19.4082,VALID,151,VALID,0.315304,
2002-04-25, 01:38:00,VALID,915.591,VALID,0,VALID,99.5272,VALID,-0.0509425,VALID,19.4015,VALID,151,VALID,0.121875,
2002-04-25, 01:39:00,VALID,915.573,VALID,0,VALID,99.5323,VALID,-0.0169808,VALID,19.4085,VALID,151,VALID,0,
2002-04-25, 01:40:00,VALID,915.544,VALID,0,VALID,99.531,VALID,-0.0849042,VALID,19.4082,VALID,151,VALID,0,
2002-04-25, 01:41:00,VALID,915.52,VALID,0,VALID,99.5361,VALID,-0.0849042,VALID,19.4184,VALID,151,VALID,0,
2002-04-25, 01:42:00,VALID,915.504,VALID,0,VALID,99.5361,VALID,-0.0679233,VALID,19.4047,VALID,137,VALID,0.0956503,
2002-04-25, 01:43:01,VALID,915.493,VALID,0,VALID,99.5209,VALID,-0.0849042,VALID,19.3821,VALID,91,VALID,0.488086,
2002-04-25, 01:44:00,VALID,915.478,VALID,0,VALID,99.5285,VALID,-0.101885,VALID,19.3695,VALID,90,VALID,0.410056,
2002-04-25, 01:45:00,VALID,915.461,VALID,0,VALID,99.5285,VALID,-0.101885,VALID,19.3958,VALID,90,VALID,0.122596,
2002-04-25, 01:46:00,VALID,915.447,VALID,0,VALID,99.5348,VALID,-0.101885,VALID,19.3888,VALID,90,VALID,0.0404297,
2002-04-25, 01:47:00,VALID,915.423,VALID,0,VALID,99.5298,VALID,-0.0679233,VALID,19.3888,VALID,90,VALID,0.16246,
2002-04-25, 01:48:00,VALID,915.419,VALID,0,VALID,99.531,VALID,-0.0509425,VALID,19.4052,VALID,128,VALID,0.471554,
2002-04-25, 01:49:00,VALID,915.413,VALID,0,VALID,99.5361,VALID,-0.0849042,VALID,19.3953,VALID,162,VALID,0.601151,
2002-04-25, 01:50:00,VALID,915.407,VALID,0,VALID,99.5348,VALID,-0.101885,VALID,19.3923,VALID,162,VALID,0.604941,
2002-04-25, 01:51:01,VALID,915.383,VALID,0,VALID,99.5374,VALID,-0.101885,VALID,19.3796,VALID,162,VALID,0.551562,
2002-04-25, 01:52:00,VALID,915.384,VALID,0,VALID,99.5323,VALID,-0.0679233,VALID,19.3635,VALID,162,VALID,0.453926,
2002-04-25, 01:53:00,VALID,915.361,VALID,0,VALID,99.5425,VALID,0.0169808,VALID,19.3556,VALID,161,VALID,0.376402,
2002-04-25, 01:54:00,VALID,915.363,VALID,0,VALID,99.5399,VALID,0.0169808,VALID,19.3655,VALID,157,VALID,0.345703,
2002-04-25, 01:55:00,VALID,915.349,VALID,0,VALID,99.5425,VALID,0.0679233,VALID,19.3484,VALID,151,VALID,0.299279,
2002-04-25, 01:56:00,VALID,915.354,VALID,0,VALID,99.5437,VALID,0.0169808,VALID,19.3481,VALID,151,VALID,0.0733173,
2002-04-25, 01:57:00,VALID,915.343,VALID,0,VALID,99.5425,VALID,0.0509425,VALID,19.365,VALID,151,VALID,0,
2002-04-25, 01:58:00,VALID,915.344,VALID,0,VALID,99.5437,VALID,0.0339617,VALID,19.3618,VALID,213,VALID,0.230785,
2002-04-25, 01:59:01,VALID,915.334,VALID,0,VALID,99.5463,VALID,0,VALID,19.3546,VALID,271,VALID,0.626562,
2002-04-25, 02:00:00,VALID,915.322,VALID,0,VALID,99.5463,VALID,0,VALID,19.3782,VALID,270,VALID,0.508814,
2002-04-25, 02:01:00,VALID,915.325,VALID,0,VALID,99.5476,VALID,0.0169808,VALID,19.3844,VALID,255,VALID,0.439303,
2002-04-25, 02:02:00,VALID,915.313,VALID,0,VALID,99.5412,VALID,0.0509425,VALID,19.3807,VALID,255,VALID,0.341406,
2002-04-25, 02:03:00,VALID,915.295,VALID,0,VALID,99.5565,VALID,0.0169808,VALID,19.3876,VALID,259,VALID,0.157252,
2002-04-25, 02:04:00,VALID,915.297,VALID,0,VALID,99.5488,VALID,0.0169808,VALID,19.407,VALID,261,VALID,0.156651,
2002-04-25, 02:05:01,VALID,915.28,VALID,0,VALID,99.5501,VALID,0.0339617,VALID,19.4259,VALID,359,VALID,0.694922,
2002-04-25, 02:06:00,VALID,915.267,VALID,0,VALID,99.5552,VALID,0.0339617,VALID,19.4264,VALID,21,VALID,1.04371,
2002-04-25, 02:07:01,VALID,915.266,VALID,0,VALID,99.5463,VALID,0.0339617,VALID,19.4097,VALID,20,VALID,1.04121,
2002-04-25, 02:08:00,VALID,915.259,VALID,0.2,VALID,99.5527,VALID,0,VALID,19.3911,VALID,24,VALID,1.0022,
2002-04-25, 02:09:00,VALID,915.261,VALID,0,VALID,99.5616,VALID,0,VALID,19.3782,VALID,19,VALID,0.769431,
2002-04-25, 02:10:00,VALID,915.253,VALID,0,VALID,99.5577,VALID,0,VALID,19.3747,VALID,31,VALID,0.404297,
2002-04-25, 02:11:01,VALID,915.249,VALID,0,VALID,99.5628,VALID,-0.0169808,VALID,19.3747,VALID,31,VALID,0.413061,
2002-04-25, 02:12:00,VALID,915.258,VALID,0,VALID,99.5628,VALID,0,VALID,19.3916,VALID,30,VALID,0.350561,
2002-04-25, 02:13:00,VALID,915.267,VALID,0,VALID,99.5704,VALID,0,VALID,19.3976,VALID,30,VALID,0.455664,
2002-04-25, 02:14:00,VALID,915.259,VALID,0,VALID,99.5616,VALID,-0.0169808,VALID,19.4077,VALID,30,VALID,0.59565,
2002-04-25, 02:15:01,VALID,915.246,VALID,0,VALID,99.559,VALID,-0.0339617,VALID,19.3911,VALID,30,VALID,0.479297,
2002-04-25, 02:16:00,VALID,915.239,VALID,0,VALID,99.5704,VALID,0,VALID,19.3819,VALID,30,VALID,0.471154,
2002-04-25, 02:17:00,VALID,915.237,VALID,0,VALID,99.5654,VALID,-0.0169808,VALID,19.3493,VALID,30,VALID,0.51262,
2002-04-25, 02:18:00,VALID,915.228,VALID,0,VALID,99.5755,VALID,-0.0169808,VALID,19.3267,VALID,30,VALID,0.61582,
2002-04-25, 02:19:00,VALID,915.204,VALID,0,VALID,99.5743,VALID,-0.0339617,VALID,19.33,VALID,30,VALID,0.408454,
2002-04-25, 02:20:00,VALID,915.181,VALID,0,VALID,99.5666,VALID,-0.0339617,VALID,19.327,VALID,30,VALID,0.48117,
2002-04-25, 02:21:00,VALID,915.168,VALID,0,VALID,99.5679,VALID,-0.0339617,VALID,19.3337,VALID,25,VALID,0.532031,
2002-04-25, 02:22:00,VALID,915.124,VALID,0,VALID,99.5641,VALID,-0.0169808,VALID,19.327,VALID,15,VALID,0.633024,
2002-04-25, 02:23:01,VALID,915.109,VALID,0,VALID,99.5679,VALID,0,VALID,19.3235,VALID,353,VALID,0.453906,
2002-04-25, 02:24:00,VALID,915.081,VALID,0,VALID,99.5666,VALID,-0.0339617,VALID,19.3372,VALID,348,VALID,0.468149,
2002-04-25, 02:25:00,VALID,915.071,VALID,0,VALID,99.5704,VALID,-0.0169808,VALID,19.3531,VALID,349,VALID,0.466146,
2002-04-25, 02:26:00,VALID,915.047,VALID,0,VALID,99.5704,VALID,-0.0339617,VALID,19.356,VALID,6,VALID,0.650391,
2002-04-25, 02:27:00,VALID,915.031,VALID,0,VALID,99.5717,VALID,-0.0339617,VALID,19.3859,VALID,18,VALID,0.972556,
2002-04-25, 02:28:00,VALID,915.032,VALID,0,VALID,99.573,VALID,-0.0509425,VALID,19.3851,VALID,5,VALID,0.624399,
2002-04-25, 02:29:01,VALID,915.026,VALID,0,VALID,99.5704,VALID,-0.0339617,VALID,19.3816,VALID,1,VALID,0.473633,
2002-04-25, 02:30:00,VALID,915.001,VALID,0,VALID,99.5704,VALID,-0.0509425,VALID,19.3821,VALID,360,VALID,0.130701,
2002-04-25, 02:31:01,VALID,914.988,VALID,0,VALID,99.5692,VALID,0,VALID,19.3814,VALID,10,VALID,0.542383,
2002-04-25, 02:32:00,VALID,914.956,VALID,0,VALID,99.5794,VALID,-0.0509425,VALID,19.4072,VALID,25,VALID,0.0873397,
2002-04-25, 02:33:00,VALID,914.928,VALID,0,VALID,99.573,VALID,0,VALID,19.4234,VALID,24,VALID,0.636418,
2002-04-25, 02:34:00,VALID,914.918,VALID,0,VALID,99.5641,VALID,0,VALID,19.4395,VALID,29,VALID,0.211914,
2002-04-25, 02:35:01,VALID,914.901,VALID,0,VALID,99.5666,VALID,0,VALID,19.4629,VALID,29,VALID,0.0328526,
2002-04-25, 02:36:00,VALID,914.88,VALID,0,VALID,99.5832,VALID,-0.0169808,VALID,19.4691,VALID,26,VALID,0.482572,
2002-04-25, 02:37:00,VALID,914.883,VALID,0,VALID,99.5819,VALID,-0.0169808,VALID,19.485,VALID,24,VALID,0.580859,
2002-04-25, 02:38:00,VALID,914.891,VALID,0,VALID,99.5959,VALID,-0.0169808,VALID,19.4882,VALID,25,VALID,0.344595,
2002-04-25, 02:39:01,VALID,914.903,VALID,0,VALID,99.5883,VALID,-0.0169808,VALID,19.5114,VALID,23,VALID,0.0931641,
2002-04-25, 02:40:00,VALID,914.906,VALID,0,VALID,99.5933,VALID,-0.0679233,VALID,19.5143,VALID,23,VALID,0,
2002-04-25, 02:41:00,VALID,914.906,VALID,0,VALID,99.587,VALID,-0.0339617,VALID,19.5369,VALID,23,VALID,0,
2002-04-25, 02:42:00,VALID,914.901,VALID,0,VALID,99.5857,VALID,0,VALID,19.5337,VALID,23,VALID,0,
2002-04-25, 02:43:00,VALID,914.894,VALID,0,VALID,99.5819,VALID,-0.0169808,VALID,19.5176,VALID,23,VALID,0.00641026,
2002-04-25, 02:44:00,VALID,914.883,VALID,0,VALID,99.5883,VALID,-0.0509425,VALID,19.5044,VALID,23,VALID,0.0204327,
2002-04-25, 02:45:00,VALID,914.88,VALID,0,VALID,99.5908,VALID,-0.0169808,VALID,19.5111,VALID,23,VALID,0,
2002-04-25, 02:46:00,VALID,914.877,VALID,0,VALID,99.5908,VALID,-0.0169808,VALID,19.5206,VALID,23,VALID,0,
2002-04-25, 02:47:01,VALID,914.864,VALID,0,VALID,99.5883,VALID,-0.0169808,VALID,19.5074,VALID,23,VALID,0,
2002-04-25, 02:48:00,VALID,914.869,VALID,0,VALID,99.5895,VALID,0,VALID,19.5044,VALID,23,VALID,0,
2002-04-25, 02:49:00,VALID,914.856,VALID,0,VALID,99.5832,VALID,-0.0169808,VALID,19.4912,VALID,23,VALID,0,
2002-04-25, 02:50:00,VALID,914.851,VALID,0,VALID,99.5908,VALID,0.0169808,VALID,19.5076,VALID,23,VALID,0,
2002-04-25, 02:51:00,VALID,914.854,VALID,0,VALID,99.5921,VALID,-0.0339617,VALID,19.5004,VALID,23,VALID,0,
2002-04-25, 02:52:01,VALID,914.838,VALID,0,VALID,99.5946,VALID,-0.0169808,VALID,19.4848,VALID,23,VALID,0,
2002-04-25, 02:53:01,VALID,914.837,VALID,0,VALID,99.5921,VALID,-0.0679233,VALID,19.4786,VALID,23,VALID,0,
2002-04-25, 02:54:00,VALID,914.829,VALID,0,VALID,99.5883,VALID,-0.0339617,VALID,19.4753,VALID,23,VALID,0,
2002-04-25, 02:55:01,VALID,914.817,VALID,0,VALID,99.5946,VALID,-0.0169808,VALID,19.4492,VALID,23,VALID,0,
2002-04-25, 02:56:00,VALID,914.821,VALID,0,VALID,99.5921,VALID,-0.0339617,VALID,19.443,VALID,23,VALID,0,
2002-04-25, 02:57:00,VALID,914.811,VALID,0,VALID,99.5972,VALID,0,VALID,19.4398,VALID,23,VALID,0,
2002-04-25, 02:58:01,VALID,914.79,VALID,0,VALID,99.5959,VALID,-0.0339617,VALID,19.4366,VALID,23,VALID,0,
2002-04-25, 02:59:01,VALID,914.769,VALID,0,VALID,99.5984,VALID,0,VALID,19.4162,VALID,23,VALID,0,
2002-04-25, 03:00:01,VALID,914.761,VALID,0,VALID,99.6035,VALID,-0.0169808,VALID,19.4266,VALID,23,VALID,0,
2002-04-25, 03:01:01,VALID,914.743,VALID,0,VALID,99.6073,VALID,0,VALID,19.4197,VALID,23,VALID,0,
2002-04-25, 03:02:00,VALID,914.74,VALID,0,VALID,99.5921,VALID,-0.0169808,VALID,19.4204,VALID,23,VALID,0,
2002-04-25, 03:03:01,VALID,914.728,VALID,0,VALID,99.601,VALID,-0.0339617,VALID,19.4139,VALID,23,VALID,0.114258,
2002-04-25, 03:04:00,VALID,914.729,VALID,0,VALID,99.5984,VALID,-0.0339617,VALID,19.4107,VALID,23,VALID,0.283654,
2002-04-25, 03:05:00,VALID,914.728,VALID,0,VALID,99.6048,VALID,-0.0169808,VALID,19.4139,VALID,23,VALID,0.174679,
2002-04-25, 03:06:01,VALID,914.724,VALID,0,VALID,99.5946,VALID,-0.0339617,VALID,19.4207,VALID,23,VALID,0.103711,
2002-04-25, 03:07:01,VALID,914.721,VALID,0,VALID,99.5933,VALID,-0.0509425,VALID,19.4043,VALID,24,VALID,0.172676,
2002-04-25, 03:08:01,VALID,914.72,VALID,0,VALID,99.6035,VALID,-0.0339617,VALID,19.3846,VALID,25,VALID,0.304888,
2002-04-25, 03:09:01,VALID,914.729,VALID,0,VALID,99.6035,VALID,-0.0339617,VALID,19.3692,VALID,25,VALID,0.23457,
2002-04-25, 03:10:00,VALID,914.718,VALID,0,VALID,99.601,VALID,-0.0169808,VALID,19.3657,VALID,25,VALID,0.228463,
2002-04-25, 03:11:01,VALID,914.716,VALID,0,VALID,99.601,VALID,-0.0339617,VALID,19.369,VALID,26,VALID,0.287695,
2002-04-25, 03:12:00,VALID,914.708,VALID,0,VALID,99.6035,VALID,-0.0849042,VALID,19.3593,VALID,47,VALID,0.642428,
2002-04-25, 03:13:01,VALID,914.707,VALID,0,VALID,99.5984,VALID,-0.0169808,VALID,19.3332,VALID,53,VALID,0.72476,
2002-04-25, 03:14:01,VALID,914.694,VALID,0,VALID,99.601,VALID,0,VALID,19.3108,VALID,64,VALID,0.619727,
2002-04-25, 03:15:01,VALID,914.699,VALID,0,VALID,99.6137,VALID,-0.0339617,VALID,19.2748,VALID,60,VALID,0.646034,
2002-04-25, 03:16:01,VALID,914.686,VALID,0,VALID,99.6048,VALID,0,VALID,19.2591,VALID,56,VALID,0.60016,
2002-04-25, 03:17:01,VALID,914.687,VALID,0,VALID,99.6111,VALID,-0.0339617,VALID,19.2527,VALID,54,VALID,0.526172,
2002-04-25, 03:18:01,VALID,914.671,VALID,0,VALID,99.615,VALID,-0.0339617,VALID,19.236,VALID,59,VALID,0.541807,
2002-04-25, 03:19:01,VALID,914.675,VALID,0,VALID,99.6162,VALID,-0.0339617,VALID,19.2236,VALID,73,VALID,0.265625,
2002-04-25, 03:20:01,VALID,914.672,VALID,0,VALID,99.6086,VALID,-0.0169808,VALID,19.2134,VALID,73,VALID,0.316907,
2002-04-25, 03:21:01,VALID,914.665,VALID,0,VALID,99.6213,VALID,-0.0339617,VALID,19.1975,VALID,73,VALID,0.252204,
2002-04-25, 03:22:01,VALID,914.654,VALID,0,VALID,99.6302,VALID,-0.0339617,VALID,19.201,VALID,74,VALID,0.295117,
2002-04-25, 03:23:01,VALID,914.634,VALID,0,VALID,99.6239,VALID,0.0509425,VALID,19.1961,VALID,76,VALID,0.0210337,
2002-04-25, 03:24:01,VALID,914.639,VALID,0,VALID,99.6251,VALID,0.0679233,VALID,19.1963,VALID,76,VALID,0.0010016,
2002-04-25, 03:25:01,VALID,914.648,VALID,0,VALID,99.6289,VALID,0.0509425,VALID,19.21,VALID,76,VALID,0.0142578,
2002-04-25, 03:26:01,VALID,914.642,VALID,0,VALID,99.6226,VALID,0.0679233,VALID,19.2062,VALID,76,VALID,0,
2002-04-25, 03:27:01,VALID,914.643,VALID,0,VALID,99.6188,VALID,0.101885,VALID,19.2023,VALID,76,VALID,0,
2002-04-25, 03:28:01,VALID,914.634,VALID,0,VALID,99.6264,VALID,0.0679233,VALID,19.2157,VALID,76,VALID,0,
2002-04-25, 03:29:01,VALID,914.621,VALID,0,VALID,99.6251,VALID,0.0679233,VALID,19.2388,VALID,76,VALID,0,
2002-04-25, 03:30:01,VALID,914.617,VALID,0,VALID,99.6277,VALID,0.0679233,VALID,19.2381,VALID,76,VALID,0,
2002-04-25, 03:31:00,VALID,914.614,VALID,0,VALID,99.6239,VALID,0.0679233,VALID,19.2351,VALID,76,VALID,0,
2002-04-25, 03:32:00,VALID,914.597,VALID,0,VALID,99.6213,VALID,0.0849042,VALID,19.2289,VALID,76,VALID,0.098758,